Content
SEND FEEDBACK

Daily
Averages
Monthly
Summary
United States of America

BARRINGTON, ILLINOIS


Home > North America > United States > Illinois
Elevation: 810 feet     Latitude: 42 10N     Longitude: 088 09W

WEATHER
 
SELECT A DAY
Number of Records: 196,409;   Date Range: 1/1/95 - 7/7/14
 
SHARE

PRINT THIS DATA

[ ← Previous Day ]
WEATHER ALMANAC - JANUARY 21, 2013
[ Next Day → ]
[ °C ]   °F
Weather ElementAverageHighLow
Temperature9.4 °F14 °F (1:51 am)5 °F (10:51 pm)
Dewpoint-6.1 °F1 °F (2:51 am)-11 °F (8:51 pm)
Humidity49.8 %59 % (2:51 am)40 % (4:51 pm)
Barometer30.22 in30.30 in (8:51 pm)30.15 in (4:51 am)
Wind Speed17 mph21.9 mph (4:51 am)
Wind Gust27.6 mph (12:51 pm)
Weather ElementAverage
Visibility10 mi
Wind DirectionWNW (290 °)

Weather ElementTotal
Precipitation---
Heating Degree Days55.5 (Base 65)
Averaged from 23 records on January 21, 2013
WEATHER CONDITIONS BREAKOUT
WIND DIRECTION BREAKOUT
WEATHER BY HOUR - JANUARY 21, 2013
[ °C ]   °F
Local TimeTemperatureDewpointHumidityBarometerVisibilityWind DirectionWind SpeedGust SpeedPrecipitationEventsConditions
1:51 AM14.0 °F-0.9 °F52 %30.19 in10.0 miWest (280°)12.7 mphMostly Cloudy
2:51 AM13.1 °F1.0 °F59 %30.18 in10.0 miWNW (300°)17.3 mphMostly Cloudy
3:51 AM13.1 °F0.0 °F56 %30.16 in10.0 miWest (280°)13.8 mphOvercast
4:51 AM13.1 °F-0.9 °F54 %30.15 in10.0 miWest (280°)21.9 mphMostly Cloudy
5:51 AM12.0 °F-2.0 °F53 %30.15 in10.0 miWNW (290°)15.0 mphMostly Cloudy
6:51 AM10.9 °F-2.0 °F56 %30.15 in10.0 miWNW (300°)13.8 mphMostly Cloudy
7:51 AM9.0 °F-2.9 °F59 %30.17 in10.0 miWNW (290°)17.3 mph24.2 mphScattered Clouds
8:51 AM9.0 °F-4.0 °F56 %30.18 in10.0 miWNW (290°)18.4 mphScattered Clouds
9:51 AM8.1 °F-4.9 °F56 %30.19 in10.0 miWest (280°)18.4 mph26.5 mphMostly Cloudy
10:51 AM8.1 °F-4.9 °F56 %30.21 in10.0 miWNW (290°)16.1 mphMostly Cloudy
11:51 AM9.0 °F-4.9 °F53 %30.21 in10.0 miWNW (290°)20.7 mph25.3 mph0.00 inMostly Cloudy
12:51 PM9.0 °F-7.1 °F48 %30.19 in10.0 miWest (280°)20.7 mph27.6 mphScattered Clouds
1:51 PM9.0 °F-7.1 °F48 %30.20 in10.0 miWNW (290°)17.3 mph25.3 mphPartly Cloudy
2:51 PM10.0 °F-9.0 °F42 %30.24 in10.0 miWNW (290°)17.3 mph25.3 mphPartly Cloudy
3:51 PM10.8 °F-9.0 °F41 %30.25 in10.0 miWest (280°)20.7 mph27.6 mphPartly Cloudy
4:51 PM10.0 °F-9.9 °F40 %30.25 in10.0 miWNW (290°)16.1 mph23.0 mphPartly Cloudy
5:51 PM9.0 °F-9.9 °F42 %30.26 in10.0 miWest (280°)18.4 mphPartly Cloudy
6:51 PM8.1 °F-9.0 °F46 %30.27 in10.0 miWNW (290°)17.3 mph23.0 mphClear
7:51 PM8.6 °F-9.4 °F44 %30.22 in10.0 miWNW (290°)15.0 mph23.0 mphClear
8:51 PM7.0 °F-11.0 °F44 %30.30 in10.0 miWNW (300°)17.3 mphClear
9:51 PM6.1 °F-11.0 °F45 %30.30 in10.0 miWNW (300°)17.3 mph24.2 mphPartly Cloudy
10:51 PM5.0 °F-11.0 °F48 %30.30 in10.0 miWNW (300°)15.0 mphPartly Cloudy
11:51 PM5.0 °F-11.0 °F48 %30.30 in10.0 miNW (310°)12.7 mph18.4 mphScattered Clouds
Hourly data recorded from KORD, located miles away from Barrington, Illinois







STORIES FROM OUR PARTNERS